Date String (YYYY-MM-DD hh:mm:ss) UTC,Instrument flags,absolute air pressure of the measurement (hPa),sample flow rate (lpm),inlet stack bypass flow (lpm),air temperature of the measurement (°C),ambient temperature measured by the external sensor (°C),aerosol sample conditioner tube jacket temperature (°C),OPC LED temperature (°C),internal box temperature (°C),relative humidity of the measurement (%),span deviation,mass concentration of particles derived from Lorenz-Mie calculation of OPC scattering (μg/m³),mass concentration of particles derived from Lorenz-Mie calculation of OPC scattering (μg/m³),mass concentration of particles derived from Lorenz-Mie calculation of OPC scattering (μg/m³)
DateTimeUTC,F1_M11,P_M11,Q1_M11,Q2_M11,T1_M11,T2_M11,T3_M11,T4_M11,T5_M11,U1_M11,ZSPAN_M11,X2_M11,X0_M11,X1_M11
2023-10-07 17:00:00,SystemResetWarning,0837.9,5.00,000.00,027.9,026.8,000.0,036.2,029.6,18.6,0000.0,0004.39,0010.24,0004.01
2023-10-07 17:01:00,SystemResetWarning,0837.9,5.00,000.00,027.9,026.8,000.0,036.2,029.6,18.4,0000.0,0004.36,0010.41,0003.99
2023-10-07 17:02:00,SystemResetWarning,0837.9,5.00,000.00,027.9,026.8,000.0,036.2,029.6,18.2,0000.0,0004.35,0011.03,0003.97
2023-10-07 17:03:00,SystemResetWarning,0837.9,5.00,000.00,027.9,026.8,000.0,036.2,029.6,18.2,0000.0,0004.38,0011.64,0003.95
2023-10-07 17:04:00,SystemResetWarning,0837.8,5.00,000.00,028.0,026.8,000.0,036.2,029.6,18.3,0000.0,0004.39,0012.66,0003.94
2023-10-07 17:05:00,SystemResetWarning,0837.8,4.99,000.00,028.0,026.9,000.0,036.3,029.7,18.7,0000.0,0004.40,0012.72,0003.93
2023-10-07 17:06:00,SystemResetWarning,0837.9,4.99,000.00,028.0,026.9,000.0,036.3,029.7,18.2,0000.0,0004.41,0011.61,0003.92
2023-10-07 17:07:00,SystemResetWarning,0837.8,4.99,000.00,028.0,026.9,000.0,036.3,029.7,18.0,0000.0,0004.39,0011.59,0003.92
2023-10-07 17:08:00,SystemResetWarning,0837.9,5.00,000.00,028.0,026.9,000.0,036.3,029.7,18.3,0000.0,0004.40,0011.95,0003.92
2023-10-07 17:09:00,SystemResetWarning,0837.9,5.00,000.00,028.1,026.9,000.0,036.3,029.7,18.0,0000.0,0004.40,0012.76,0003.91
2023-10-07 17:10:00,SystemResetWarning,0837.9,5.00,000.00,028.1,027.0,000.0,036.4,029.8,18.0,0000.0,0004.39,0012.39,0003.89
2023-10-07 17:11:00,SystemResetWarning,0838.0,5.00,000.00,028.1,027.0,000.0,036.4,029.8,18.1,0000.0,0004.37,0011.47,0003.88
2023-10-07 17:12:00,SystemResetWarning,0838.0,5.00,000.00,028.1,027.0,000.0,036.4,029.8,18.2,0000.0,0004.36,0011.23,0003.86
2023-10-07 17:13:00,SystemResetWarning,0838.0,5.00,000.00,028.1,027.0,000.0,036.4,029.8,18.4,0000.0,0004.33,0010.65,0003.84
2023-10-07 17:14:00,SystemResetWarning,0838.0,5.00,000.00,028.2,027.0,000.0,036.4,029.8,18.2,0000.0,0004.26,0009.94,0003.82
2023-10-07 17:15:00,SystemResetWarning,0838.0,5.00,000.00,028.2,027.1,000.0,036.5,029.8,18.0,0000.0,0004.21,0008.83,0003.81
2023-10-07 17:16:00,SystemResetWarning,0838.0,5.01,000.00,028.2,027.1,000.0,036.5,029.9,17.8,0000.0,0004.15,0008.67,0003.79
2023-10-07 17:17:00,SystemResetWarning,0838.0,5.00,000.00,028.2,027.1,000.0,036.5,029.9,18.0,0000.0,0004.08,0008.57,0003.77
2023-10-07 17:18:00,SystemResetWarning,0838.0,5.00,000.00,028.2,027.1,000.0,036.5,029.9,18.0,0000.0,0004.05,0008.31,0003.75
2023-10-07 17:19:00,SystemResetWarning,0837.9,4.99,000.00,028.2,027.1,000.0,036.5,029.9,18.3,0000.0,0004.01,0007.74,0003.72
2023-10-07 17:20:00,SystemResetWarning,0837.9,5.00,000.00,028.3,027.2,000.0,036.6,030.0,18.5,0000.0,0003.97,0006.84,0003.71
2023-10-07 17:21:00,SystemResetWarning,0837.9,4.99,000.00,028.3,027.2,000.0,036.6,029.9,18.5,0000.0,0003.97,0006.77,0003.69
2023-10-07 17:22:00,SystemResetWarning,0837.8,4.99,000.00,028.3,027.2,000.0,036.6,030.0,18.4,0000.0,0003.95,0007.37,0003.67
2023-10-07 17:23:00,SystemResetWarning,0837.8,5.00,000.00,028.3,027.2,000.0,036.6,030.0,18.6,0000.0,0003.92,0007.21,0003.66
2023-10-07 17:24:00,SystemResetWarning,0837.8,5.00,000.00,028.3,027.2,000.0,036.6,030.0,18.7,0000.0,0003.90,0007.23,0003.65
2023-10-07 17:25:00,SystemResetWarning,0837.8,5.00,000.00,028.4,027.3,000.0,036.7,030.0,18.2,0000.0,0003.91,0007.40,0003.64
2023-10-07 17:26:00,SystemResetWarning,0837.8,5.01,000.00,028.4,027.3,000.0,036.7,030.0,18.1,0000.0,0003.91,0007.61,0003.65
2023-10-07 17:27:00,SystemResetWarning,0837.8,5.00,000.00,028.4,027.3,000.0,036.7,030.0,18.0,0000.0,0003.95,0007.73,0003.66
2023-10-07 17:28:00,SystemResetWarning,0837.8,5.00,000.00,028.4,027.3,000.0,036.7,030.1,17.9,0000.0,0004.00,0007.88,0003.70
2023-10-07 17:29:00,SystemResetWarning,0837.8,5.00,000.00,028.4,027.3,000.0,036.7,030.1,17.8,0000.0,0004.04,0007.94,0003.74
2023-10-07 17:30:00,SystemResetWarning,0837.8,5.00,000.00,028.5,027.3,000.0,036.7,030.1,17.6,0000.0,0004.07,0008.00,0003.77
2023-10-07 17:31:00,SystemResetWarning,0837.8,5.00,000.00,028.5,027.4,000.0,036.8,030.1,17.7,0000.0,0004.11,0008.23,0003.80
2023-10-07 17:32:00,SystemResetWarning,0837.8,4.99,000.00,028.5,027.4,000.0,036.8,030.2,17.8,0000.0,0004.17,0008.52,0003.83
2023-10-07 17:33:00,SystemResetWarning,0837.8,5.00,000.00,028.5,027.4,000.0,036.8,030.2,17.6,0000.0,0004.21,0008.16,0003.86
2023-10-07 17:34:00,SystemResetWarning,0837.8,5.01,000.00,028.5,027.4,000.0,036.8,030.2,17.8,0000.0,0004.25,0008.26,0003.88
2023-10-07 17:35:00,SystemResetWarning,0837.8,5.00,000.00,028.6,027.4,000.0,036.8,030.2,17.8,0000.0,0004.27,0008.24,0003.91
2023-10-07 17:36:00,SystemResetWarning,0837.8,5.00,000.00,028.6,027.5,000.0,036.8,030.2,18.0,0000.0,0004.31,0008.52,0003.93
2023-10-07 17:37:00,SystemResetWarning,0837.8,5.00,000.00,028.6,027.5,000.0,036.9,030.2,18.0,0000.0,0004.32,0009.06,0003.93
2023-10-07 17:38:00,SystemResetWarning,0837.8,5.00,000.00,028.6,027.5,000.0,036.9,030.2,18.0,0000.0,0004.31,0009.02,0003.93
2023-10-07 17:39:00,SystemResetWarning,0837.8,4.99,000.00,028.6,027.5,000.0,036.9,030.3,18.0,0000.0,0004.27,0008.96,0003.90
2023-10-07 17:40:00,SystemResetWarning,0837.8,4.99,000.00,028.6,027.5,000.0,036.9,030.3,17.4,0000.0,0004.25,0008.97,0003.87
2023-10-07 17:41:00,SystemResetWarning,0837.8,4.99,000.00,028.7,027.6,000.0,036.9,030.3,17.7,0000.0,0004.25,0009.04,0003.84
2023-10-07 17:42:00,SystemResetWarning,0837.8,5.00,000.00,028.7,027.6,000.0,036.9,030.3,17.7,0000.0,0004.24,0008.93,0003.82
2023-10-07 17:43:00,SystemResetWarning,0837.8,5.01,000.00,028.7,027.6,000.0,037.0,030.3,17.8,0000.0,0004.19,0008.55,0003.80
2023-10-07 17:44:00,SystemResetWarning,0837.7,5.00,000.00,028.7,027.6,000.0,037.0,030.4,17.6,0000.0,0004.16,0008.33,0003.78
2023-10-07 17:45:00,SystemResetWarning,0837.7,5.00,000.00,028.7,027.6,000.0,037.0,030.4,17.6,0000.0,0004.17,0008.42,0003.77
2023-10-07 17:46:00,SystemResetWarning,0837.7,5.00,000.00,028.8,027.7,000.0,037.0,030.4,17.7,0000.0,0004.22,0008.53,0003.77
2023-10-07 17:47:00,SystemResetWarning,0837.7,5.00,000.00,028.8,027.7,000.0,037.1,030.4,17.7,0000.0,0004.24,0008.66,0003.76
2023-10-07 17:48:00,SystemResetWarning,0837.7,5.00,000.00,028.8,027.7,000.0,037.1,030.4,17.8,0000.0,0004.22,0007.66,0003.76
2023-10-07 17:49:00,SystemResetWarning,0837.7,5.00,000.00,028.8,027.7,000.0,037.1,030.5,17.6,0000.0,0004.22,0007.60,0003.76
2023-10-07 17:50:00,SystemResetWarning,0837.7,5.00,000.00,028.8,027.8,000.0,037.1,030.5,17.4,0000.0,0004.22,0007.59,0003.77
2023-10-07 17:51:00,SystemResetWarning,0837.7,4.99,000.00,028.9,027.8,000.0,037.1,030.5,17.1,0000.0,0004.20,0008.23,0003.78
2023-10-07 17:52:00,SystemResetWarning,0837.7,5.00,000.00,028.9,027.8,000.0,037.2,030.5,17.0,0000.0,0004.17,0008.10,0003.77
2023-10-07 17:53:00,SystemResetWarning,0837.7,5.00,000.00,028.9,027.8,000.0,037.2,030.5,17.3,0000.0,0004.15,0008.05,0003.76
2023-10-07 17:54:00,SystemResetWarning,0837.7,5.00,000.00,028.9,027.8,000.0,037.2,030.5,17.3,0000.0,0004.13,0008.12,0003.76
2023-10-07 17:55:00,SystemResetWarning,0837.7,5.01,000.00,028.9,027.9,000.0,037.2,030.6,17.1,0000.0,0004.17,0008.28,0003.78
2023-10-07 17:56:00,SystemResetWarning,0837.7,5.01,000.00,028.9,027.9,000.0,037.2,030.6,16.7,0000.0,0004.17,0008.19,0003.79
2023-10-07 17:57:00,SystemResetWarning,0837.6,5.00,000.00,029.0,027.9,000.0,037.3,030.6,16.6,0000.0,0004.18,0008.34,0003.83
2023-10-07 17:58:00,SystemResetWarning,0837.7,5.00,000.00,029.0,027.9,000.0,037.3,030.6,17.0,0000.0,0004.18,0008.34,0003.86
2023-10-07 17:59:00,SystemResetWarning,0837.7,4.99,000.00,029.0,027.9,000.0,037.3,030.6,16.9,0000.0,0004.21,0008.39,0003.89
